Flag for U.S.A. Weather past 2 weeks in Warminster Township, Pennsylvania, U.S.A.

Now
32 °F

Overcast.


Feels Like: 29 °F
Forecast: 27 / 39 °F
Wind: 3 mph from Northeast

Location: Doylestown Airport

Current Time: Dec 22, 2014 at 8:13:33 AM

Latest Report: Dec 22, 2014 at 7:54 AM


Visibility: 10 mi

Pressure: 30.33 "Hg

Humidity: 85%

Dew point: 28 °F

Location of Warminster TownshipLocation

Historic Weather in Warminster Township — Graph

°F

Warminster Township temperature yesterday

Maximum temperature yesterday: 35 °F (at 10:54 AM)
Minimum temperature yesterday: 27 °F (at 5:54 AM)
Average temperature yesterday: 31 °F

Past Weeks' High & Low Weather Summary

 TemperatureHumidityPressure
High49 °F (Dec 17, 12:54 PM)100% (Dec 9, 2:54 AM)30.66 "Hg (Dec 9, 2:54 AM)
Low22 °F (Dec 8, 5:54 AM)35% (Dec 7, 1:54 PM)29.68 "Hg (Dec 10, 5:04 PM)
Average34 °F76%30.07 "Hg
* Reported Dec 7 6:54 AM — Dec 22 6:54 AM, Warminster Township, Weather by CustomWeather, © 2014

Note: Actual official high and low records may vary slightly from our data, if they occured in-between our weather recording intervals... More about our weather records

Advertising

Warminster Township weather history for previous 24 hours

 ConditionsComfort  
Time TempWeatherWind HumidityBarometerVisibility
6:54 AM
Dec 22
31 °FMostly cloudy.No wind85%30.32 "Hg10 mi
5:54 AM31 °FOvercast.No wind82%30.32 "Hg10 mi
4:54 AM31 °FOvercast.No wind82%30.31 "Hg10 mi
3:54 AM31 °FOvercast.No wind82%30.33 "Hg10 mi
2:54 AM30 °FOvercast.No wind82%30.34 "Hg10 mi
1:54 AM30 °FOvercast.No wind82%30.34 "Hg10 mi
12:54 AM30 °FOvercast.No wind82%30.33 "Hg10 mi
11:54 PM
Dec 21
30 °FOvercast.No wind82%30.34 "Hg10 mi
10:54 PM28 °FOvercast.No wind85%30.34 "Hg10 mi
9:54 PM27 °FOvercast.No wind85%30.34 "Hg10 mi
8:54 PM29 °FOvercast.No wind79%30.34 "Hg10 mi
7:54 PM27 °FPassing clouds.No wind85%30.36 "Hg10 mi
6:54 PM30 °FOvercast.3 mph75%30.34 "Hg10 mi
5:54 PM30 °FOvercast.No wind75%30.34 "Hg10 mi
4:54 PM31 °FPassing clouds.3 mph73%30.31 "Hg10 mi
3:54 PM35 °FSunny.5 mph61%30.30 "Hg10 mi
2:54 PM35 °FPartly sunny.6 mph61%30.30 "Hg10 mi
1:54 PM34 °FOvercast.7 mph64%30.31 "Hg10 mi
12:54 PM35 °FPartly sunny.7 mph61%30.31 "Hg10 mi
11:54 AM34 °FPartly sunny.7 mph61%30.32 "Hg10 mi
10:54 AM35 °FOvercast.7 mph59%30.34 "Hg10 mi
9:54 AM34 °FPassing clouds.6 mph61%30.34 "Hg10 mi
8:54 AM31 °FSunny.5 mph69%30.33 "Hg10 mi
Weather by CustomWeather, © 2014

See weather overviewHow to use our weather pages